This demonstration page uses our WeatherBlox Daily Observations layout. Learn more.

Left ArrowRight Arrow

Hourly Observations for January 10, 2020

Temp ( °F °C ) Dew Point ( °F °C ) Humidity (%) Winds ( mph kmh ) Pressure ( in mb ) Visibility ( mi km ) Precip ( " mm )
12:09 am 00:09 Mostly Cloudy 29 -1.7 26 -3.3 89 89 ENE 8 13 30.06 1018 10 16 0.00 0.00
12:32 am 00:32 Cloudy 29 -1.7 26 -3.3 89 89 E 8 13 30.08 1019 9 14 0.00 0.00
12:53 am 00:53 Cloudy with Mist and Fog 28 -2.2 26 -3.3 92 92 NE 9 15 30.01 1016 6 10 0.00 0.00
1:17 am 01:17 Cloudy with Mist and Fog 28 -2.2 26 -3.3 92 92 NE 12 19 30.07 1018 5 8 0.00 0.00
1:53 am 01:53 Cloudy with Mist and Fog 28 -2.2 26 -3.3 92 92 NE 9 15 30.00 1016 3 4 0.00 0.00
2:18 am 02:18 Cloudy with Mist and Fog 27 -2.8 26 -3.3 96 96 NE 13 20 30.08 1019 2 2 0.00 0.00
2:36 am 02:36 Cloudy with Mist and Fog 27 -2.8 25 -3.9 92 92 ENE 13 20 30.09 1019 3 4 0.00 0.00
2:43 am 02:43 Cloudy with Mist and Fog 27 -2.8 25 -3.9 92 92 NE 13 20 30.10 1019 4 6 0.00 0.00
2:53 am 02:53 Cloudy with Mist and Fog 27 -2.8 25 -3.9 92 92 ENE 13 20 30.03 1017 4 6 0.00 0.00
3:53 am 03:53 Cloudy with Mist and Fog 26 -3.3 24 -4.4 92 92 NE 14 22 30.03 1017 6 10 0.00 0.00
4:53 am 04:53 Cloudy with Mist and Fog 25 -3.9 24 -4.4 96 96 ENE 14 22 30.06 1018 3 4 0.00 0.00
5:15 am 05:15 Cloudy with Mist and Fog 25 -3.9 24 -4.4 96 96 NE 10 17 30.13 1020 4 6 0.00 0.00
5:30 am 05:30 Cloudy with Mist and Fog 25 -3.9 24 -4.4 96 96 NE 12 19 30.14 1021 2 3 0.00 0.00
5:45 am 05:45 Cloudy with Mist and Fog 25 -3.9 24 -4.4 96 96 NE 12 19 30.14 1021 4 6 0.00 0.00
5:53 am 05:53 Cloudy with Mist and Fog 26 -3.3 24 -4.4 92 92 NE 10 17 30.08 1019 3 5 0.00 0.00
6:53 am 06:53 Cloudy with Mist and Fog 25 -3.9 23 -5 92 92 NE 15 24 30.09 1019 6 10 0.00 0.00
7:38 am 07:38 Cloudy with Mist and Fog 25 -3.9 23 -5 92 92 NE 14 22 30.16 1021 6 10 0.00 0.00
7:53 am 07:53 Cloudy with Mist and Fog 25 -3.9 23 -5 92 92 NNE 17 28 30.11 1020 5 8 0.00 0.00
8:53 am 08:53 Cloudy with Mist and Fog 25 -3.9 22 -5.6 88 88 NE 18 30 30.14 1021 5 8 0.00 0.00
9:53 am 09:53 Cloudy with Mist and Fog 25 -3.9 22 -5.6 88 88 NNE 20 31 30.16 1022 5 8 0.00 0.00
10:53 am 10:53 Cloudy with Mist and Fog 24 -4.4 21 -6.1 88 88 NNE 20 31 30.22 1023 4 6 0.00 0.00
11:53 am 11:53 Cloudy with Mist and Fog 23 -5 20 -6.7 88 88 N 22 35 30.20 1023 5 8 0.00 0.00
12:49 pm 12:49 Cloudy 21 -6 18 -8 86 86 N 23 37 30.25 1024 7 11 0.00 0.00
12:53 pm 12:53 Cloudy 22 -5.6 18 -7.8 85 85 N 25 41 30.18 1022 7 11 0.00 0.00
1:53 pm 13:53 Cloudy 21 -6.1 15 -9.4 78 78 N 26 43 30.18 1022 10 16 0.00 0.00
2:14 pm 14:14 Cloudy 21 -6.1 14 -10 74 74 N 26 43 30.26 1025 10 16 0.00 0.00
2:42 pm 14:42 Cloudy 21 -6 12 -11 68 68 N 21 33 30.27 1025 10 16 0.00 0.00
2:53 pm 14:53 Mostly Cloudy 21 -6.1 12 -11.1 68 68 NNE 26 43 30.21 1023 10 16 0.00 0.00
3:53 pm 15:53 Mostly Cloudy 21 -6.1 11 -11.7 65 65 N 24 39 30.24 1024 10 16 0.00 0.00
4:53 pm 16:53 Mostly Cloudy 18 -7.8 10 -12.2 71 71 N 29 46 30.26 1025 10 16 0.00 0.00
5:53 pm 17:53 Clear 16 -8.9 9 -12.8 74 74 N 25 41 30.26 1025 10 16 0.00 0.00
6:27 pm 18:27 Mostly Cloudy 15 -9.4 8 -13.3 74 74 N 24 39 30.37 1029 10 16 0.00 0.00
6:53 pm 18:53 Partly Cloudy 15 -9.4 7 -13.9 70 70 N 25 41 30.32 1027 10 16 0.00 0.00
7:53 pm 19:53 Clear 14 -10 7 -13.9 73 73 N 22 35 30.35 1028 10 16 0.00 0.00
8:53 pm 20:53 Clear 13 -10.6 7 -13.9 77 77 N 24 39 30.30 1026 10 16 0.00 0.00
9:53 pm 21:53 Clear 12 -11.1 6 -14.4 77 77 N 21 33 30.32 1027 10 16 0.00 0.00
10:53 pm 22:53 Clear 11 -11.7 4 -15.6 73 73 N 18 30 30.34 1027 10 16 0.00 0.00
11:53 pm 23:53 Clear 10 -12.2 2 -16.7 69 69 N 17 28 30.33 1027 10 16 0.00 0.00

Powered by AerisWeather